DateTimeUTC,F1_A11,F1_S11,BsB_S11,BsG_S11,BsR_S11,BbsB_S11,BbsG_S11,BbsR_S11,BaB_A11,BaG_A11,BaR_A11,Tu_S11,T_S11,Uu_S11,U_S11,P_S11,T1_A11
2021-10-12T07:00:00Z,00000200,21000000,,,,,,,-000.27,0000.26,0000.10,16.5,23.8,,00.0,0671.2,30.9
2021-10-12T07:01:00Z,00000200,21000000,,,,,,,0000.17,0000.14,0000.01,16.5,23.8,,00.0,0671.2,30.9
2021-10-12T07:02:00Z,00000200,21000000,,,,,,,-000.06,-000.55,-000.12,16.5,23.8,,00.0,0671.2,30.9
2021-10-12T07:03:00Z,00000200,61000000,,,,,,,0000.07,-000.04,-000.02,16.5,23.8,,00.0,0671.2,30.9
2021-10-12T07:04:00Z,00000200,41000000,0002.60,0001.91,0000.80,0000.39,-000.36,-000.23,0000.23,0000.63,0000.24,16.9,23.7,,00.0,0672.1,30.9
2021-10-12T07:05:00Z,00000200,01000000,0002.84,0001.85,0001.08,0000.15,0000.24,0000.01,0000.30,-000.06,0000.35,17.0,23.7,,00.0,0672.2,30.9
2021-10-12T07:06:00Z,00000200,01000000,0002.77,0001.60,0001.01,0000.31,-000.06,-000.17,0000.10,0000.10,-000.16,17.0,23.7,,00.0,0672.2,30.9
2021-10-12T07:07:00Z,00000200,01000000,0001.56,0001.27,0000.88,0000.96,0000.22,0000.23,0000.39,-000.08,0000.20,17.1,23.7,,00.0,0672.2,30.9
2021-10-12T07:08:00Z,00000200,01000000,0001.76,0001.00,0000.69,0000.65,-000.08,0000.37,0000.24,0000.57,-000.01,17.1,23.7,,00.0,0672.2,30.9
2021-10-12T07:09:00Z,00000200,01000000,0002.41,0000.91,0000.74,-000.03,0000.23,0000.31,0000.12,0000.12,0000.04,17.1,23.7,,00.0,0672.1,30.9
2021-10-12T07:10:00Z,00000200,01000000,0000.83,0001.24,0000.58,0000.60,-000.21,-000.03,0000.36,0000.31,0000.17,17.0,23.7,,00.0,0672.1,30.9
2021-10-12T07:11:00Z,00000200,01000000,0001.02,0001.47,0000.35,0000.01,0000.38,0000.17,0000.23,0000.22,0000.29,17.0,23.7,,00.0,0672.1,30.9
2021-10-12T07:12:00Z,00000200,01000000,0001.43,0001.19,0000.66,0000.06,-000.07,0000.03,0000.30,0000.26,0000.20,16.9,23.6,,00.0,0672.1,30.9
2021-10-12T07:13:00Z,00000200,01000000,0001.24,0000.91,0000.56,0000.45,0000.10,0000.24,0000.45,0000.83,0000.37,16.9,23.6,,00.0,0672.1,30.9
2021-10-12T07:14:00Z,00000200,01000000,0000.77,0000.90,0000.45,0000.15,0000.25,0000.11,0000.57,0000.17,0000.46,16.9,23.6,,00.0,0672.1,30.9
2021-10-12T07:15:00Z,00000200,01000000,0000.95,0001.11,0000.51,0000.53,-000.09,0000.33,0000.55,0000.59,0000.29,16.9,23.6,,00.0,0672.1,30.9
2021-10-12T07:16:00Z,00000200,01000000,0000.93,0000.98,0000.26,0000.74,-000.13,-000.14,0000.40,0000.43,0000.67,16.9,23.6,,00.0,0672.0,30.9
2021-10-12T07:17:00Z,00000200,01000000,0001.00,0000.85,0000.41,0000.44,-000.11,-000.39,0000.47,-000.03,-000.09,17.0,23.6,,00.0,0672.1,30.9
2021-10-12T07:18:00Z,00000200,01000000,0000.81,0001.13,0000.51,-000.18,0000.21,0000.40,0000.17,0000.97,0000.23,17.1,23.6,,00.0,0672.1,30.9
2021-10-12T07:19:00Z,00000200,01000000,0001.34,0001.15,0000.34,0000.13,0000.00,-000.00,0000.60,0000.22,0000.14,17.1,23.6,,00.0,0672.1,30.9
2021-10-12T07:20:00Z,00000200,01000000,0001.50,0001.17,0000.61,0000.71,0000.10,-000.08,-000.01,-000.23,0000.29,17.1,23.7,,00.0,0672.1,30.9
2021-10-12T07:21:00Z,00000200,01000000,0000.95,0001.09,0000.85,0000.52,0000.20,0000.28,0000.09,0000.43,-000.02,17.2,23.7,,00.0,0672.1,30.9
2021-10-12T07:22:00Z,00000200,01000000,0001.08,0000.92,0000.37,0000.73,0000.22,0000.04,0000.07,-000.20,0000.29,17.2,23.7,,00.0,0672.1,30.9
2021-10-12T07:23:00Z,00000200,01000000,0000.96,0000.79,0000.28,0000.14,-000.08,0000.20,0000.25,0000.21,-000.35,17.2,23.7,,00.0,0672.0,30.9
2021-10-12T07:24:00Z,00000200,01000000,0001.12,0001.08,0000.27,0000.63,0000.01,0000.33,0000.44,0000.26,0000.74,17.1,23.7,,00.0,0672.0,30.9
2021-10-12T07:25:00Z,00000200,01000000,0001.94,0000.59,0000.25,0000.00,-000.14,0000.08,0000.08,0000.32,-000.38,17.1,23.7,,00.0,0672.0,30.9
2021-10-12T07:26:00Z,00000200,01000000,0001.54,0001.02,0000.50,0000.22,0000.04,0000.38,0000.45,0000.24,0000.48,17.0,23.6,,00.0,0672.0,30.9
2021-10-12T07:27:00Z,00000200,01000000,0001.03,0000.91,0000.54,-000.23,0000.19,-000.05,0000.40,0000.18,-000.03,16.9,23.6,,00.0,0672.0,30.9
2021-10-12T07:28:00Z,00000200,01000000,0001.18,0000.77,0000.28,-000.15,-000.08,0000.07,0000.50,0000.15,0000.68,16.9,23.5,,00.0,0672.0,30.9
2021-10-12T07:29:00Z,00000200,01000000,0001.06,0000.94,0000.72,-000.13,0000.23,-000.12,0000.50,0000.88,0000.48,16.9,23.5,,00.0,0672.0,30.9
2021-10-12T07:30:00Z,00000200,01000000,0000.80,0000.93,0000.63,0000.27,0000.10,0000.20,0000.33,0000.41,0000.05,16.9,23.6,,00.0,0672.0,30.9
2021-10-12T07:31:00Z,00000200,01000000,0001.90,0000.91,0000.26,0000.34,0000.30,0000.09,0000.48,0000.35,0000.36,17.0,23.6,,00.0,0672.0,30.9
2021-10-12T07:32:00Z,00000200,01000000,0001.32,0000.84,0000.72,0000.15,-000.02,0000.13,0000.54,0000.73,0000.52,17.0,23.6,,00.0,0672.0,30.9
2021-10-12T07:33:00Z,00000200,01000000,0002.58,0000.89,0000.62,0000.50,-000.03,0000.17,0000.33,0000.28,0000.03,17.1,23.6,,00.0,0672.0,30.9
2021-10-12T07:34:00Z,00000200,01000000,0001.12,0000.92,0000.43,0000.77,0000.04,-000.25,0000.36,-000.00,0000.24,17.1,23.6,,00.0,0672.0,30.9
2021-10-12T07:35:00Z,00000200,01000000,0001.96,0001.46,0000.54,0000.43,0000.00,0000.06,0000.02,0000.52,0000.20,17.2,23.6,,00.0,0672.0,30.9
2021-10-12T07:36:00Z,00000200,01000000,0002.14,0000.94,0000.60,0000.92,0000.17,0000.11,0000.37,0000.33,0000.06,17.2,23.7,,00.0,0672.1,30.9
2021-10-12T07:37:00Z,00000200,01000000,0002.59,0001.04,0000.49,-000.03,0000.04,-000.10,0000.27,0000.21,0000.35,17.3,23.7,,00.0,0672.1,30.9
2021-10-12T07:38:00Z,00000200,01000000,0001.93,0001.06,0000.54,0000.30,0000.16,0000.01,0000.37,0000.19,0000.05,17.3,23.7,,00.0,0672.1,30.9
2021-10-12T07:39:00Z,00000200,01000000,0001.28,0001.26,0000.92,0000.71,0000.08,0000.10,0000.15,-000.43,-000.22,17.3,23.8,,00.0,0672.1,30.9
2021-10-12T07:40:00Z,00000200,01000000,0000.63,0001.00,0000.59,0000.45,0000.05,0000.18,0000.09,0000.57,0000.20,17.3,23.8,,00.0,0672.1,31.0
2021-10-12T07:41:00Z,00000200,01000000,0002.52,0001.17,0000.62,0000.76,0000.25,-000.11,0000.71,0000.34,0000.45,17.2,23.7,,00.0,0672.1,30.9
2021-10-12T07:42:00Z,00000200,01000000,0001.59,0001.32,0000.70,0000.23,0000.16,0000.13,0000.08,0000.31,-000.18,17.1,23.7,,00.0,0672.1,30.9
2021-10-12T07:43:00Z,00000200,01000000,0001.91,0001.04,0000.52,0000.03,0000.14,0000.01,0000.59,0000.48,0000.45,17.1,23.7,,00.0,0672.1,30.9
2021-10-12T07:44:00Z,00000200,01000000,0001.00,0001.02,0000.26,0000.80,-000.09,-000.20,0000.51,0000.26,0000.44,17.1,23.7,,00.0,0672.0,30.9
2021-10-12T07:45:00Z,00000200,01000000,0000.88,0001.04,0000.20,0000.20,0000.12,-000.00,0000.33,0000.15,0000.30,17.1,23.7,,00.0,0672.0,30.9
2021-10-12T07:46:00Z,00000200,01000000,0001.77,0000.67,0000.35,0000.04,-000.00,0000.53,0000.24,0000.55,0000.37,17.1,23.7,,00.0,0672.0,30.9
2021-10-12T07:47:00Z,00000200,01000000,0001.14,0000.96,0000.46,0001.03,0000.18,-000.00,0000.86,0000.60,0000.26,17.2,23.7,,00.0,0672.1,30.9
2021-10-12T07:48:00Z,00000200,01000000,0001.29,0001.05,0000.28,0000.04,0000.22,0000.11,-000.04,0000.36,0000.41,17.2,23.7,,00.0,0672.1,30.9
2021-10-12T07:49:00Z,00000200,01000000,0001.31,0000.93,0000.59,0000.24,-000.29,0000.24,0000.40,0000.20,0000.17,17.3,23.7,,00.0,0672.1,30.9
2021-10-12T07:50:00Z,00000200,01000000,0001.84,0000.96,0000.58,0000.44,0000.13,0000.19,0000.45,0000.42,-000.05,17.3,23.8,,00.0,0672.1,30.9
2021-10-12T07:51:00Z,00000200,01000000,0002.24,0000.98,0000.82,0000.86,0000.09,0000.31,0000.31,0000.28,0000.37,17.4,23.8,,00.0,0672.1,30.9
2021-10-12T07:52:00Z,00000200,01000000,0001.26,0001.51,0000.56,0000.21,0000.25,0000.04,0000.45,0000.40,0000.48,17.3,23.8,,00.0,0672.1,30.9
2021-10-12T07:53:00Z,00000200,01000000,0001.54,0001.43,0000.31,0000.15,0000.10,0000.07,0000.26,0000.06,0000.15,17.2,23.8,,00.0,0672.1,30.9
2021-10-12T07:54:00Z,00000200,01000000,0002.01,0001.79,0000.66,0000.85,0000.15,0000.02,0000.75,0000.46,0000.02,17.2,23.7,,00.0,0672.0,30.9
2021-10-12T07:55:00Z,00000200,01000000,0001.64,0001.51,0000.77,0000.19,0000.13,-000.37,0000.28,0000.17,-000.03,17.1,23.7,,00.0,0672.0,30.9
2021-10-12T07:56:00Z,00000200,01000000,0001.45,0001.46,0000.76,0000.35,0000.23,0000.11,0000.45,0000.99,0000.70,17.0,23.6,,00.0,0672.0,30.9
2021-10-12T07:57:00Z,00000200,41000000,,,,,,,-000.49,-000.96,-000.15,17.0,23.7,,00.0,0672.0,30.9
2021-10-12T07:58:00Z,00000200,61000000,,,,,,,0000.28,0000.40,-000.03,16.6,23.7,,00.0,0670.9,30.9
2021-10-12T07:59:00Z,00000200,21000000,,,,,,,0000.06,0000.34,0000.32,16.5,23.8,,00.0,0670.9,30.9
